TimeEDT,TemperatureF,Dew PointF,Humidity,Sea Level PressureIn,VisibilityMPH,Wind Direction,Wind SpeedMPH,Gust SpeedMPH,PrecipitationIn,Events,Conditions,WindDirDegrees,DateUTC
12:15 AM,42.8,33.8,70,29.86,10.0,WNW,15.0,18.4,N/A,,Overcast,300,2012-11-03 04:15:00
12:35 AM,42.8,33.8,70,29.86,10.0,WNW,13.8,-,N/A,,Overcast,300,2012-11-03 04:35:00
1:15 AM,41.0,33.8,76,29.87,10.0,WNW,15.0,-,N/A,,Overcast,300,2012-11-03 05:15:00
1:35 AM,41.0,33.8,76,29.86,10.0,NW,13.8,-,N/A,,Overcast,310,2012-11-03 05:35:00
1:55 AM,41.0,33.8,76,29.86,10.0,WNW,12.7,-,N/A,,Overcast,300,2012-11-03 05:55:00
2:15 AM,41.0,33.8,76,29.86,10.0,NW,12.7,23.0,N/A,,Overcast,310,2012-11-03 06:15:00
2:35 AM,41.0,33.8,76,29.86,10.0,NW,12.7,-,N/A,,Overcast,310,2012-11-03 06:35:00
2:55 AM,41.0,33.8,76,29.86,10.0,WNW,15.0,-,N/A,,Overcast,300,2012-11-03 06:55:00
3:15 AM,39.2,33.8,81,29.87,10.0,WNW,12.7,-,N/A,,Scattered Clouds,300,2012-11-03 07:15:00
3:35 AM,39.2,32.0,75,29.87,10.0,WNW,13.8,18.4,N/A,,Clear,300,2012-11-03 07:35:00
3:55 AM,39.2,32.0,75,29.86,10.0,NW,13.8,-,N/A,,Mostly Cloudy,310,2012-11-03 07:55:00
4:15 AM,39.2,32.0,75,29.87,10.0,WNW,16.1,20.7,N/A,,Overcast,300,2012-11-03 08:15:00
4:35 AM,39.2,32.0,75,29.87,10.0,WNW,16.1,23.0,N/A,,Overcast,300,2012-11-03 08:35:00
4:55 AM,39.2,32.0,75,29.87,10.0,NW,18.4,21.9,N/A,,Overcast,310,2012-11-03 08:55:00
5:15 AM,39.2,32.0,75,29.88,10.0,NW,11.5,-,N/A,,Overcast,310,2012-11-03 09:15:00
5:35 AM,39.2,32.0,75,29.89,10.0,NW,11.5,19.6,N/A,,Overcast,310,2012-11-03 09:35:00
5:55 AM,39.2,32.0,75,29.89,10.0,NW,12.7,-,N/A,,Overcast,310,2012-11-03 09:55:00
6:15 AM,39.2,32.0,75,29.90,10.0,NW,10.4,-,N/A,,Overcast,310,2012-11-03 10:15:00
6:35 AM,39.2,32.0,75,29.91,10.0,WNW,11.5,-,N/A,,Overcast,290,2012-11-03 10:35:00
6:55 AM,39.2,32.0,75,29.91,10.0,WNW,12.7,-,N/A,,Overcast,290,2012-11-03 10:55:00
7:15 AM,39.2,32.0,75,29.92,10.0,WNW,15.0,-,N/A,,Overcast,300,2012-11-03 11:15:00
7:35 AM,39.2,32.0,75,29.92,10.0,NW,12.7,-,N/A,,Overcast,310,2012-11-03 11:35:00
7:55 AM,39.2,32.0,75,29.93,10.0,NW,12.7,-,N/A,,Overcast,310,2012-11-03 11:55:00
8:15 AM,39.2,32.0,75,29.94,10.0,WNW,12.7,-,N/A,,Overcast,290,2012-11-03 12:15:00
8:35 AM,39.2,32.0,75,29.95,10.0,WNW,10.4,-,N/A,,Overcast,300,2012-11-03 12:35:00
8:55 AM,39.2,32.0,75,29.95,10.0,WNW,11.5,-,N/A,,Overcast,300,2012-11-03 12:55:00
9:15 AM,41.0,32.0,70,29.95,10.0,WNW,12.7,-,N/A,,Overcast,300,2012-11-03 13:15:00
9:35 AM,41.0,32.0,70,29.96,10.0,NW,12.7,-,N/A,,Overcast,310,2012-11-03 13:35:00
9:55 AM,42.8,32.0,66,29.96,10.0,NW,11.5,17.3,N/A,,Overcast,310,2012-11-03 13:55:00
10:15 AM,42.8,32.0,66,29.96,10.0,NW,18.4,-,N/A,,Overcast,320,2012-11-03 14:15:00
10:35 AM,42.8,32.0,66,29.97,10.0,NNW,13.8,-,N/A,,Overcast,330,2012-11-03 14:35:00
10:55 AM,42.8,32.0,66,29.96,10.0,NW,12.7,-,N/A,,Overcast,320,2012-11-03 14:55:00
11:35 AM,42.8,32.0,66,29.97,10.0,NW,10.4,-,N/A,,Overcast,320,2012-11-03 15:35:00
11:55 AM,44.6,32.0,61,29.96,10.0,NW,18.4,24.2,N/A,,Overcast,320,2012-11-03 15:55:00
12:15 PM,44.6,32.0,61,29.96,10.0,NW,13.8,-,N/A,,Overcast,320,2012-11-03 16:15:00
12:35 PM,44.6,32.0,61,29.95,10.0,NW,19.6,26.5,N/A,,Mostly Cloudy,320,2012-11-03 16:35:00
12:55 PM,44.6,32.0,61,29.95,10.0,NW,16.1,32.2,N/A,,Overcast,320,2012-11-03 16:55:00
1:15 PM,44.6,32.0,61,29.95,10.0,NNW,18.4,24.2,N/A,,Overcast,330,2012-11-03 17:15:00
1:35 PM,44.6,32.0,61,29.95,10.0,NW,19.6,24.2,N/A,,Overcast,310,2012-11-03 17:35:00
1:55 PM,44.6,32.0,61,29.94,10.0,NW,18.4,24.2,N/A,,Overcast,320,2012-11-03 17:55:00
2:15 PM,44.6,32.0,61,29.95,10.0,NW,15.0,-,N/A,,Overcast,320,2012-11-03 18:15:00
2:35 PM,44.6,32.0,61,29.95,10.0,NW,21.9,27.6,N/A,,Overcast,320,2012-11-03 18:35:00
2:55 PM,44.6,32.0,61,29.95,10.0,NW,15.0,-,N/A,,Overcast,310,2012-11-03 18:55:00
3:15 PM,44.6,32.0,61,29.95,10.0,NW,15.0,26.5,N/A,,Overcast,320,2012-11-03 19:15:00
3:35 PM,44.6,32.0,61,29.96,10.0,WNW,18.4,-,N/A,,Overcast,300,2012-11-03 19:35:00
3:55 PM,44.6,32.0,61,29.97,10.0,WNW,12.7,-,N/A,,Overcast,300,2012-11-03 19:55:00
4:15 PM,44.6,32.0,61,29.97,10.0,NW,15.0,-,N/A,,Overcast,310,2012-11-03 20:15:00
4:35 PM,44.6,32.0,61,29.97,10.0,NW,10.4,19.6,N/A,,Overcast,310,2012-11-03 20:35:00
4:55 PM,44.6,32.0,61,29.96,10.0,NW,13.8,19.6,N/A,,Overcast,310,2012-11-03 20:55:00
5:15 PM,44.6,32.0,61,29.97,10.0,WNW,12.7,-,N/A,,Overcast,300,2012-11-03 21:15:00
5:35 PM,44.6,32.0,61,29.97,10.0,NW,11.5,-,N/A,,Overcast,310,2012-11-03 21:35:00
5:55 PM,44.6,32.0,61,29.97,10.0,NW,13.8,-,N/A,,Overcast,310,2012-11-03 21:55:00
6:15 PM,44.6,32.0,61,29.97,10.0,NW,10.4,-,N/A,,Overcast,310,2012-11-03 22:15:00
6:35 PM,44.6,32.0,61,29.97,10.0,NW,15.0,20.7,N/A,,Overcast,320,2012-11-03 22:35:00
6:55 PM,44.6,32.0,61,29.98,10.0,NW,12.7,-,N/A,,Overcast,310,2012-11-03 22:55:00
7:15 PM,44.6,32.0,61,29.99,10.0,WNW,9.2,-,N/A,,Overcast,300,2012-11-03 23:15:00
7:35 PM,42.8,32.0,66,29.99,10.0,NW,9.2,-,N/A,,Overcast,310,2012-11-03 23:35:00
7:55 PM,42.8,32.0,66,29.99,10.0,NW,9.2,-,N/A,,Overcast,310,2012-11-03 23:55:00
8:15 PM,42.8,32.0,66,29.99,10.0,NW,9.2,-,N/A,,Overcast,310,2012-11-04 00:15:00
8:35 PM,42.8,32.0,66,30.00,10.0,NW,9.2,-,N/A,,Overcast,310,2012-11-04 00:35:00
8:55 PM,42.8,32.0,66,30.00,10.0,NNW,9.2,-,N/A,,Overcast,330,2012-11-04 00:55:00
9:15 PM,42.8,32.0,66,30.00,10.0,NW,6.9,-,N/A,,Overcast,320,2012-11-04 01:15:00
9:35 PM,42.8,32.0,66,30.01,10.0,NNW,6.9,-,N/A,,Overcast,330,2012-11-04 01:35:00
9:55 PM,42.8,32.0,66,30.01,10.0,NNW,10.4,-,N/A,,Overcast,340,2012-11-04 01:55:00
10:35 PM,42.8,30.2,61,30.02,10.0,NNW,9.2,-,N/A,,Overcast,330,2012-11-04 02:35:00
10:55 PM,42.8,30.2,61,30.03,10.0,NNW,9.2,16.1,N/A,,Overcast,330,2012-11-04 02:55:00
11:15 PM,42.8,30.2,61,30.03,10.0,NNW,5.8,-,N/A,,Overcast,330,2012-11-04 03:15:00
11:35 PM,42.8,30.2,61,30.03,10.0,NNW,10.4,-,N/A,,Overcast,330,2012-11-04 03:35:00
11:55 PM,42.8,30.2,61,30.03,10.0,NNW,10.4,-,N/A,,Overcast,330,2012-11-04 03:55:00